Temperature
30 30 31 30 30 30 30 31 31 31 31 31 30 30 28 27 26 25 24 23 23 22 22 21 21 21 21 20 20 20 20 19 19 18 18 18 17 17 17 17 16 16 16 16
28 29 30 30 30 30 30 31 31 31 31 31 30 29 28 27 26 25 24 23 22 22 21 21 21 21 21 20 20 20 19 19 18 18 18 17 17 16 16 16 16 16 15 15
28 29 29 28 30 30 30 30 31 30 30 30 29 28 27 26 25 25 24 23 22 22 21 21 21 21 21 20 20 20 19 19 18 18 18 17 16 16 16 16 15 15 15 15
28 27 26 29 30 30 30 30 30 30 30 29 29 28 27 26 25 25 24 23 22 22 21 21 21 21 21 20 20 19 19 19 18 18 17 17 16 16 16 15 15 15 15 14
27 27 27 28 28 29 29 29 29 29 29 29 28 28 27 25 25 24 23 23 22 22 22 21 21 21 21 20 20 19 19 19 18 18 17 17 16 16 16 15 15 15 14 14
26 27 27 28 28 28 29 28 28 28 28 28 27 29 29 25 24 23 23 22 22 22 21 21 21 21 20 20 20 19 19 18 18 17 17 17 16 16 15 15 15 14 14 14
26 26 28 27 27 27 27 27 26 26 26 26 27 27 25 24 23 22 22 22 21 21 21 21 21 20 20 20 19 19 19 18 18 17 17 16 16 16 15 15 14 14 14 14
26 26 26 25 26 27 26 24 24 25 25 24 24 24 23 23 22 22 21 21 21 21 20 20 20 20 20 19 19 19 18 18 18 17 17 16 16 15 15 15 14 14 14 13
26 25 23 23 24 23 22 23 23 23 23 23 23 23 22 22 21 21 20 21 20 20 20 20 20 20 19 19 19 18 18 18 17 17 16 16 16 15 15 15 14 14 14 13
23 23 22 22 21 21 21 21 21 22 22 22 22 22 21 21 20 20 20 20 20 19 20 20 19 19 19 19 18 18 18 17 17 16 16 16 15 15 14 14 14 14 14 13
22 22 21 21 20 20 20 20 21 21 21 21 21 21 21 20 20 19 19 19 19 19 19 19 19 19 18 18 18 17 17 17 16 16 15 15 15 14 14 14 14 14 14 13
23 21 22 20 19 19 19 20 20 20 20 20 20 20 20 20 19 19 19 19 19 19 18 18 18 18 18 18 17 17 16 16 16 15 15 15 14 14 14 14 14 14 13 13
19 19 19 18 18 18 19 19 19 19 19 19 19 19 19 19 19 19 19 19 18 18 18 18 18 18 18 17 17 17 16 16 15 15 15 15 14 14 14 14 14 13 13 13
17 17 18 18 18 18 18 18 18 18 18 19 19 19 19 18 18 18 18 18 18 17 17 17 17 17 17 17 17 16 16 15 15 15 15 14 14 14 14 13 13 13 13 13
17 17 17 17 17 17 17 18 18 18 18 18 18 18 18 18 17 17 17 17 17 17 17 17 17 16 16 16 16 16 16 15 15 15 14 14 14 14 13 13 13 12 12 12
16 16 17 17 17 17 17 18 18 18 17 17 17 17 17 17 17 17 16 16 16 16 16 16 16 16 16 16 16 16 15 15 15 14 14 14 14 13 13 13 13 12 12 12
16 17 17 17 17 17 17 17 17 17 16 16 16 16 16 16 16 15 15 16 16 16 16 15 15 15 15 15 15 15 15 15 15 14 14 14 13 13 13 13 13 12 12 12
15 16 16 16 16 16 16 16 16 16 16 16 16 15 15 15 15 15 15 15 15 15 15 15 15 15 15 15 15 15 14 14 14 14 14 14 13 13 13 12 12 12 12 11
15 15 15 15 15 15 16 15 15 15 15 15 15 15 15 15 15 15 14 14 14 14 14 14 15 15 15 14 14 14 14 14 14 14 13 13 13 13 13 12 12 12 12 11
14 14 15 15 14 15 15 14 15 15 15 15 15 15 14 14 14 14 14 14 14 14 14 14 14 14 14 14 14 14 14 14 14 13 13 13 13 13 12 12 12 11 11 11
14 14 14 14 14 14 14 14 14 14 14 14 14 14 14 14 14 14 14 14 13 13 13 13 13 13 13 13 13 13 13 13 13 13 13 13 13 12 12 12 11 11 11 11
13 13 13 13 13 13 13 13 13 14 14 14 14 14 13 13 13 13 13 13 13 13 13 13 13 13 13 13 13 13 13 13 13 13 13 13 12 12 12 12 11 11 11 10
12 12 12 12 12 12 13 13 13 13 13 13 13 13 13 13 13 13 13 13 13 13 13 13 13 13 13 13 13 13 13 13 13 13 13 12 12 12 11 11 11 11 11 10
12 12 12 12 12 12 12 12 12 13 13 13 13 13 13 13 13 13 13 13 13 12 12 12 13 13 13 12 12 12 12 12 12 12 12 12 12 11 11 11 11 10 10 10
11 11 11 11 12 12 12 12 12 12 12 12 12 12 12 12 12 12 12 12 12 12 12 12 12 12 12 12 12 12 12 12 12 12 12 11 11 11 11 11 10 10 10 10
11 11 11 11 11 12 12 12 12 12 12 12 12 12 12 12 12 12 12 12 11 12 12 11 11 11 11 11 11 11 11 11 11 11 11 11 11 11 10 10 10 10 10 10
11 11 11 11 11 11 12 12 12 12 12 12 12 12 11 11 11 11 11 11 11 11 11 11 11 11 11 11 11 11 11 11 11 11 11 11 10 10 10 10 10 10 10 10
Wind_Speed
10 8 13 15 17 17 17 14 12 10 10 7 6 5 5 6 7 8 9 10 10 10 10 10 10 10 9 9 8 8 8 8 7 7 7 7 6 6 5 5 5 4 4 4
12 10 11 13 16 17 17 15 14 11 9 6 5 5 5 6 8 8 9 9 10 11 11 10 11 10 10 9 9 8 8 8 8 8 8 7 7 7 6 5 5 5 4 4
13 13 13 16 16 16 15 14 13 12 9 7 7 6 6 7 8 8 9 9 10 11 11 11 10 10 10 10 10 9 9 8 9 9 8 8 8 7 6 6 5 5 5 5
11 13 17 10 8 12 13 12 10 8 6 7 6 5 5 5 6 7 8 9 10 10 11 11 10 10 10 11 10 10 10 9 9 9 9 8 8 7 6 6 5 5 5 5
12 15 13 8 7 11 12 11 10 9 7 6 6 5 5 5 5 6 7 7 8 9 10 11 11 11 11 11 11 10 10 10 10 9 9 9 8 8 7 6 6 5 5 5
11 15 15 10 8 7 8 10 7 8 7 7 7 8 5 4 4 5 5 6 7 9 10 10 11 11 11 11 11 11 10 10 10 9 9 9 9 8 7 6 6 6 5 4
14 13 10 4 6 9 11 6 5 5 5 6 6 3 1 2 4 4 5 6 7 9 9 9 10 11 11 11 11 10 10 10 10 9 9 9 8 7 7 7 6 6 6 5
14 14 9 4 6 7 1 4 4 3 3 4 3 1 1 2 4 5 6 7 7 8 8 9 10 11 10 10 10 10 11 10 10 10 9 8 8 7 7 7 7 6 6 5
6 4 5 4 2 3 2 2 1 1 1 2 2 1 2 3 4 5 6 7 7 8 8 8 9 9 10 9 10 11 11 11 10 10 9 8 8 8 7 7 6 6 6 5
3 4 4 4 3 2 2 2 1 0 1 2 2 2 2 3 4 5 6 6 7 8 8 8 8 8 8 9 10 11 12 11 10 10 9 8 7 7 6 6 6 6 5 5
5 4 4 4 2 2 2 2 2 2 1 1 2 2 2 3 4 5 5 5 6 7 7 7 8 8 8 9 10 11 11 10 10 9 8 8 7 4 5 5 3 4 4 4
4 3 2 3 1 1 1 2 2 2 2 2 1 2 2 2 3 4 5 5 6 6 7 8 8 8 8 9 10 11 10 10 9 8 8 7 7 6 4 3 5 4 4 1
0 1 1 1 1 1 1 2 2 2 2 1 1 1 2 3 3 4 5 5 5 6 6 7 8 8 8 9 10 10 10 9 8 8 8 7 7 7 6 4 3 3 2 1
2 1 2 1 0 1 2 2 2 2 1 1 1 1 2 3 4 3 4 4 5 6 6 7 7 8 8 9 9 9 9 9 8 8 7 7 7 7 6 6 6 5 4 4
3 3 3 1 1 1 1 0 0 1 1 1 1 2 3 3 4 4 3 4 6 6 6 6 6 6 7 8 9 9 8 7 7 7 7 7 6 6 6 6 5 5 5 5
3 3 3 3 2 2 2 2 1 1 1 1 2 2 3 4 4 4 4 5 5 6 5 5 5 5 6 7 8 7 6 6 7 7 6 6 6 6 6 6 6 5 5 5
6 5 5 4 3 3 3 2 2 2 2 2 3 3 4 4 4 4 4 4 4 4 4 4 4 4 5 6 6 5 6 6 7 6 6 6 6 6 6 6 6 5 5 5
7 7 6 5 5 4 4 4 3 3 3 3 4 4 5 5 5 5 4 4 4 4 3 4 4 4 5 5 4 4 5 6 7 6 6 5 5 5 5 5 6 5 4 5
7 6 6 6 6 5 5 5 4 4 4 5 5 5 4 4 5 5 4 4 4 4 3 3 4 4 4 5 4 4 5 6 6 5 5 6 5 5 5 5 5 5 5 5
5 6 6 5 5 5 5 5 4 4 5 6 6 5 5 4 4 4 4 2 2 2 3 3 3 3 3 4 4 4 4 5 5 5 5 5 5 5 4 4 4 4 4 4
4 4 4 5 4 5 5 5 5 5 5 6 6 6 5 4 4 4 3 2 2 3 4 4 3 2 3 3 5 4 5 5 5 5 5 5 5 5 4 5 4 4 4 5
2 3 3 4 4 4 4 4 4 4 5 5 6 5 5 5 5 4 3 2 3 3 3 3 2 2 2 3 4 4 4 5 4 4 5 5 5 5 5 5 5 5 5 4
0 1 2 2 3 3 3 3 3 3 4 4 5 5 4 4 4 4 3 3 3 3 2 2 3 4 3 4 3 4 4 4 5 5 5 5 5 5 5 5 5 4 4 5
1 1 1 2 2 3 4 3 2 2 2 3 3 4 3 3 2 2 2 4 4 4 2 3 5 4 4 3 3 4 4 4 4 4 4 4 4 4 4 4 4 4 4 5
2 2 2 3 3 3 3 4 4 3 3 3 3 2 2 2 2 2 2 3 4 4 3 4 5 5 4 3 3 3 3 3 3 3 3 3 3 4 4 4 4 4 4 4
2 2 1 2 2 2 3 4 4 4 4 3 3 2 2 2 2 2 2 3 4 3 3 3 4 4 3 3 3 3 3 3 4 3 3 3 4 3 3 3 4 4 4 4
2 2 2 2 1 1 2 3 3 3 3 4 3 3 2 2 2 2 2 2 3 2 2 2 3 3 3 2 2 2 2 2 2 3 3 3 3 3 3 3 3 3 3 3
Wind_Direction
234 221 201 205 206 209 222 232 236 227 229 223 207 190 170 156 154 155 158 164 168 169 168 167 164 164 165 163 162 161 160 161 160 157 155 152 149 145 138 134 126 116 109 103
214 211 212 214 212 211 220 230 235 234 231 219 192 173 169 168 166 168 169 171 172 171 169 170 169 168 164 162 160 159 161 161 157 155 154 154 150 144 139 135 126 123 117 106
208 205 210 219 215 213 218 223 228 229 226 198 187 188 188 185 181 180 178 175 177 176 175 175 174 168 166 163 160 158 158 156 156 156 155 155 151 146 146 144 135 125 117 108
209 201 219 218 208 217 220 221 224 227 211 196 200 196 192 188 187 183 180 178 178 179 176 174 171 168 164 161 161 160 159 157 157 159 157 155 151 149 148 144 139 133 126 118
211 211 214 196 196 205 209 216 213 213 205 201 192 195 194 185 189 186 180 178 178 178 175 172 170 167 164 164 163 163 163 163 163 162 158 157 156 153 152 150 146 144 135 131
215 220 219 202 179 194 209 211 199 204 200 197 193 214 190 162 178 173 164 166 170 169 169 168 168 166 165 165 166 169 168 166 164 163 162 161 158 155 154 153 151 150 141 141
216 221 221 152 163 179 208 192 162 184 190 198 206 248 60 144 165 162 157 158 160 163 166 165 165 165 167 167 171 167 161 159 159 159 160 158 155 155 155 157 153 154 152 153
214 220 206 129 177 197 146 96 136 165 183 201 206 222 188 138 153 151 150 152 155 157 158 159 164 167 169 171 165 158 154 153 154 157 158 154 155 157 158 157 158 162 164 165
213 202 95 130 134 75 63 91 108 150 189 200 201 196 163 149 153 152 150 152 153 154 154 157 164 171 171 166 158 154 153 154 155 157 157 159 163 164 167 173 178 175 176 176
176 141 124 130 119 85 57 38 10 290 181 181 166 146 146 149 152 154 152 154 156 158 159 161 164 171 169 161 159 158 157 158 160 161 161 163 172 175 178 182 187 186 186 184
184 150 139 134 101 66 51 48 64 90 116 129 124 116 128 150 154 157 155 158 162 164 166 167 166 166 164 161 163 164 163 164 164 165 164 166 171 175 187 179 183 198 189 187
189 156 167 138 88 42 50 48 50 59 69 75 96 113 117 142 157 162 160 160 162 166 166 164 163 162 161 164 168 168 167 169 169 169 170 173 169 165 69 72 89 69 33 335
232 162 107 135 84 59 39 33 36 46 52 50 60 108 132 138 148 157 156 166 169 167 165 161 160 161 163 167 171 175 174 171 174 174 174 179 178 178 174 149 115 114 115 87
182 162 163 163 15 352 354 8 33 53 50 53 79 116 133 136 138 146 154 161 159 158 157 158 160 163 167 169 172 175 178 172 178 178 179 183 185 187 186 184 185 185 179 175
219 232 223 236 281 306 311 330 108 99 73 83 111 132 141 145 145 140 141 147 144 144 147 155 162 164 169 172 175 176 178 177 180 180 182 183 186 189 190 190 193 189 175 166
225 223 215 219 240 259 250 237 235 223 178 142 143 151 149 146 141 138 141 147 154 153 155 162 164 164 171 174 174 176 178 167 173 178 180 181 184 188 190 192 196 196 194 184
228 223 220 227 240 251 264 269 258 236 210 184 171 160 153 145 139 136 141 149 151 149 155 158 159 159 171 177 177 177 174 169 177 183 183 184 185 190 194 198 202 201 198 177
241 240 238 237 244 254 262 263 253 237 224 204 185 175 171 164 160 147 143 137 134 136 145 152 150 159 165 176 190 186 178 176 184 191 184 183 184 191 196 201 204 201 189 172
233 233 235 242 248 253 256 259 253 237 225 210 197 191 186 180 167 157 149 147 151 155 157 142 139 169 174 170 177 192 189 183 183 181 181 173 184 193 197 201 202 198 190 185
227 228 231 238 245 250 252 253 247 236 223 210 200 191 184 173 165 165 160 163 183 170 152 155 168 182 178 170 186 194 194 190 185 178 178 185 189 189 192 196 197 195 195 195
215 219 228 238 244 248 245 244 239 229 215 204 200 192 181 172 172 171 172 182 180 166 161 155 177 183 173 165 194 202 198 193 188 182 180 185 188 189 190 191 193 196 199 200
204 209 221 231 233 233 231 230 226 216 201 192 190 184 178 177 178 177 183 200 185 164 175 174 172 130 148 183 198 200 196 192 189 186 184 188 191 193 194 194 197 199 200 201
221 207 212 220 223 219 217 216 209 193 182 181 181 179 184 189 192 190 190 178 174 160 187 178 127 128 171 202 196 190 192 195 194 192 190 190 194 198 201 202 204 204 201 201
220 207 222 228 199 199 206 198 178 163 158 164 164 166 174 180 185 199 173 136 136 148 180 125 132 156 199 199 188 187 189 192 193 193 191 189 190 194 199 205 210 205 202 204
211 205 199 195 195 195 181 174 166 161 158 148 141 147 178 183 178 163 146 140 140 157 162 148 163 185 205 201 186 185 187 187 187 191 188 193 193 193 194 198 205 205 203 205
189 189 175 181 188 192 186 180 171 163 157 149 146 151 146 138 135 142 147 149 159 171 170 164 174 189 192 180 173 177 180 174 180 191 190 189 189 188 186 196 205 210 208 207
163 152 147 151 162 183 183 173 166 163 158 150 147 145 144 143 141 145 150 154 160 168 165 165 170 174 174 170 167 175 184 188 185 180 183 184 181 182 185 194 203 202 203 200
Height
1477 1474 1476 1483 1487 1489 1490 1489 1494 1494 1494 1493 1494 1498 1502 1506 1509 1512 1515 1517 1520 1523 1525 1528 1530 1532 1535 1537 1539 1541 1542 1544 1545 1546 1547 1548 1548 1549 1550 1550 1550 1550 1550 1549
1483 1479 1479 1482 1482 1484 1487 1486 1487 1489 1492 1489 1494 1499 1502 1505 1508 1510 1513 1516 1519 1521 1523 1526 1528 1530 1533 1535 1537 1539 1541 1542 1544 1545 1546 1547 1547 1548 1549 1549 1549 1549 1549 1549
1485 1481 1483 1488 1480 1481 1483 1483 1485 1490 1489 1490 1494 1498 1501 1503 1505 1508 1511 1514 1516 1518 1521 1523 1526 1529 1531 1533 1535 1537 1539 1541 1542 1543 1544 1545 1546 1547 1548 1548 1549 1549 1549 1549
1481 1488 1500 1480 1474 1476 1480 1481 1482 1484 1486 1490 1494 1497 1500 1502 1504 1506 1509 1511 1514 1517 1519 1522 1524 1527 1529 1532 1534 1536 1537 1539 1540 1542 1543 1544 1545 1546 1547 1548 1548 1549 1549 1549
1480 1486 1484 1479 1476 1477 1481 1484 1483 1484 1487 1490 1493 1496 1498 1500 1502 1505 1507 1509 1512 1514 1516 1519 1522 1524 1527 1529 1532 1534 1535 1537 1539 1540 1542 1543 1544 1545 1546 1546 1547 1548 1549 1549
1480 1485 1488 1476 1474 1478 1480 1486 1484 1485 1487 1490 1492 1491 1493 1498 1500 1503 1505 1507 1509 1512 1514 1516 1519 1522 1524 1527 1529 1531 1533 1535 1537 1539 1540 1542 1543 1544 1545 1546 1547 1548 1549 1549
1478 1481 1473 1471 1475 1479 1487 1484 1484 1486 1488 1490 1491 1492 1495 1496 1498 1501 1502 1504 1507 1509 1512 1514 1517 1519 1522 1524 1526 1529 1531 1533 1535 1537 1539 1540 1541 1543 1544 1545 1546 1547 1548 1548
1474 1479 1478 1476 1476 1477 1480 1482 1484 1486 1488 1490 1491 1493 1494 1496 1497 1499 1500 1502 1505 1507 1510 1512 1515 1517 1520 1522 1524 1526 1529 1531 1533 1535 1537 1539 1540 1541 1543 1544 1545 1546 1547 1548
1469 1473 1477 1478 1479 1482 1483 1484 1485 1486 1488 1489 1491 1492 1493 1495 1496 1497 1499 1500 1503 1505 1508 1510 1512 1515 1517 1520 1522 1524 1526 1528 1531 1533 1535 1536 1538 1539 1541 1542 1544 1545 1546 1547
1473 1474 1478 1480 1482 1483 1484 1485 1486 1487 1487 1489 1490 1491 1492 1493 1495 1496 1498 1499 1501 1503 1505 1507 1510 1513 1515 1517 1519 1521 1523 1526 1528 1530 1532 1534 1536 1538 1540 1541 1542 1543 1544 1545
1473 1477 1479 1481 1483 1484 1484 1485 1486 1486 1487 1488 1489 1489 1490 1492 1493 1495 1496 1498 1499 1501 1503 1505 1508 1510 1513 1515 1517 1519 1521 1523 1526 1528 1530 1531 1534 1536 1538 1539 1540 1541 1542 1542
1471 1478 1478 1482 1483 1484 1484 1485 1486 1486 1487 1488 1488 1488 1489 1490 1491 1493 1495 1496 1498 1499 1501 1503 1505 1507 1510 1512 1514 1516 1518 1521 1523 1525 1527 1529 1531 1532 1534 1535 1536 1537 1538 1540
1478 1479 1481 1482 1484 1484 1484 1485 1485 1486 1486 1487 1487 1488 1488 1489 1490 1491 1493 1495 1496 1498 1499 1501 1503 1505 1507 1509 1511 1514 1516 1518 1520 1522 1524 1526 1528 1530 1531 1533 1534 1534 1535 1536
1479 1480 1481 1482 1483 1484 1484 1484 1485 1485 1486 1486 1486 1486 1487 1487 1488 1490 1491 1493 1495 1497 1498 1499 1501 1503 1505 1507 1508 1511 1514 1516 1518 1519 1521 1523 1525 1527 1528 1530 1531 1531 1532 1533
1479 1480 1480 1481 1482 1483 1483 1483 1484 1484 1484 1485 1485 1485 1486 1487 1487 1488 1490 1492 1493 1494 1496 1497 1499 1501 1503 1505 1506 1508 1511 1513 1515 1517 1519 1520 1522 1524 1526 1527 1528 1529 1529 1530
1477 1478 1479 1480 1481 1482 1482 1483 1483 1483 1484 1484 1484 1485 1486 1486 1487 1487 1488 1490 1491 1492 1493 1495 1497 1499 1501 1503 1504 1506 1508 1510 1512 1514 1516 1517 1519 1521 1522 1523 1525 1526 1526 1527
1476 1476 1478 1479 1480 1481 1481 1482 1482 1482 1483 1483 1484 1484 1485 1485 1486 1487 1488 1489 1490 1491 1492 1493 1495 1497 1499 1501 1502 1504 1506 1507 1509 1511 1513 1515 1516 1518 1519 1520 1521 1522 1523 1523
1474 1475 1476 1477 1478 1479 1479 1480 1480 1481 1481 1482 1483 1483 1484 1484 1485 1486 1487 1488 1489 1490 1491 1492 1493 1495 1496 1499 1500 1502 1503 1504 1506 1508 1510 1511 1513 1515 1516 1517 1518 1519 1520 1520
1471 1472 1474 1475 1476 1477 1477 1478 1479 1479 1479 1480 1481 1482 1482 1483 1484 1485 1486 1487 1488 1489 1490 1491 1491 1493 1494 1495 1497 1499 1500 1502 1503 1505 1506 1507 1509 1511 1513 1514 1515 1515 1516 1517
1468 1470 1471 1473 1474 1474 1475 1475 1476 1476 1477 1478 1479 1480 1481 1482 1482 1483 1484 1485 1486 1487 1488 1489 1490 1491 1492 1493 1494 1496 1498 1499 1501 1502 1503 1504 1506 1507 1509 1510 1511 1512 1513 1513
1466 1468 1469 1470 1470 1471 1472 1473 1473 1474 1474 1476 1477 1477 1478 1479 1480 1481 1482 1483 1484 1485 1487 1487 1488 1489 1490 1491 1492 1494 1496 1497 1498 1499 1500 1501 1503 1504 1505 1507 1508 1509 1509 1510
1465 1466 1467 1467 1468 1468 1469 1470 1471 1471 1472 1473 1474 1475 1476 1477 1478 1479 1480 1481 1482 1483 1484 1486 1486 1487 1488 1489 1490 1492 1493 1494 1495 1496 1497 1499 1500 1501 1502 1504 1505 1506 1506 1507
1463 1464 1465 1466 1466 1466 1467 1468 1468 1469 1470 1471 1472 1473 1475 1475 1476 1477 1477 1478 1479 1480 1482 1483 1484 1484 1485 1487 1488 1489 1490 1491 1492 1493 1494 1496 1497 1498 1500 1501 1502 1502 1503 1504
1462 1462 1463 1464 1464 1465 1465 1466 1467 1468 1469 1470 1471 1472 1473 1474 1474 1475 1475 1475 1477 1478 1480 1481 1481 1482 1483 1485 1486 1487 1488 1489 1490 1491 1492 1493 1495 1496 1497 1498 1499 1499 1500 1501
1460 1460 1461 1462 1462 1463 1464 1464 1465 1467 1468 1469 1470 1471 1472 1473 1473 1473 1474 1473 1474 1476 1477 1478 1479 1480 1482 1483 1484 1485 1486 1487 1487 1488 1489 1491 1492 1493 1494 1495 1496 1497 1497 1498
1458 1458 1459 1460 1461 1462 1463 1464 1465 1466 1467 1468 1469 1470 1470 1471 1471 1471 1472 1472 1473 1474 1475 1476 1478 1479 1480 1481 1482 1483 1484 1485 1485 1486 1487 1489 1490 1491 1492 1492 1493 1493 1494 1494
1456 1457 1458 1459 1460 1461 1461 1462 1464 1465 1466 1467 1468 1469 1469 1470 1470 1471 1471 1472 1472 1473 1474 1475 1476 1477 1479 1480 1481 1481 1482 1483 1484 1485 1486 1486 1487 1488 1489 1490 1490 1491 1491 1491